This is the latest recevied weather packets stored in our database for station/object SP2NBH-2. If no packets are shown the sender has not sent any weather packets the latest 10 day(s).
| Time | Temp. | Humidity | Pressure | Rain* | Wind** | Luminosity | Snow |
|---|---|---|---|---|---|---|---|
| 1778058895 | 8.89° C | 69% | 1008.7 hPa | - | - | - | - |
| 1778057129 | 8.89° C | 72% | 1008.5 hPa | - | - | - | - |
| 1778057096 | 8.89° C | 72% | 1008.5 hPa | - | - | - | - |
| 1778056195 | 8.89° C | 75% | 1009.1 hPa | - | - | - | - |
| 1778055330 | 8.89° C | 76% | 1009.2 hPa | - | - | - | - |
| 1778055295 | 8.89° C | 76% | 1009.2 hPa | - | - | - | - |
| 1778054395 | 8.89° C | 78% | 1009.3 hPa | - | - | - | - |
| 1778053495 | 8.89° C | 80% | 1009.6 hPa | - | - | - | - |
| 1778052595 | 8.89° C | 81% | 1009.7 hPa | - | - | - | - |
| 1778051695 | 8.89° C | 81% | 1009.7 hPa | - | - | - | - |
| 1778050795 | 8.89° C | 81% | 1009.8 hPa | - | - | - | - |
| 1778049895 | 9.44° C | 82% | 1009.9 hPa | - | - | - | - |
| 1778048995 | 8.89° C | 82% | 1010 hPa | - | - | - | - |
| 1778048095 | 8.89° C | 81% | 1010 hPa | - | - | - | - |
| 1778047195 | 9.44° C | 79% | 1010.3 hPa | - | - | - | - |
| 1778046295 | 9.44° C | 80% | 1010.1 hPa | - | - | - | - |
| 1778045395 | 9.44° C | 80% | 1010.2 hPa | - | - | - | - |
| 1778044495 | 9.44° C | 79% | 1010.3 hPa | - | - | - | - |
| 1778043627 | 9.44° C | 78% | 1010.5 hPa | - | - | - | - |
| 1778043594 | 9.44° C | 78% | 1010.5 hPa | - | - | - | - |
| 1778042694 | 10° C | 78% | 1010.5 hPa | - | - | - | - |
| 1778041794 | 9.44° C | 78% | 1010.8 hPa | - | - | - | - |
| 1778040894 | 8.89° C | 78% | 1010.7 hPa | - | - | - | - |
| 1778039994 | 8.89° C | 79% | 1010.8 hPa | - | - | - | - |
| 1778039094 | 8.89° C | 79% | 1011 hPa | - | - | - | - |
* Rain since midnight (hover to see other rain measurements)
** Current wind speed in m/s (hover to see current wind gust speed)